,Output(kWh),Demand(kWh),Import(kWh),Export(kWh),HW(kWh),HWPV(kWh),Output(kWh/d),Demand(kWh/d),Import(kWh/d),Export(kWh/d),HW(kWh/d),HWPV(kWh/d)
30/11/2015,0.079,0.144,0.071,0.006,0,0,0.079,0.144,0.071,0.006,0,0
01/12/2015,0.097,3.474,3.384,0.007,0.228,0,0.018,3.33,3.313,0.001,0.228,0
02/12/2015,1.245,10.72,9.791,0.315,0.672,0.444,1.148,7.246,6.407,0.308,0.444,0.444
03/12/2015,2.27,15.62,14.07,0.726,2.289,1.268,1.025,4.9,4.279,0.411,1.617,0.824
04/12/2015,2.928,21,18.96,0.895,2.328,1.308,0.658,5.38,4.89,0.169,0.039,0.04
05/12/2015,4.218,29.34,26.24,1.115,2.487,1.463,1.29,8.34,7.28,0.22,0.159,0.155
06/12/2015,4.629,34.18,30.72,1.17,2.489,1.465,0.411,4.84,4.48,0.055,0.002,0.002
07/12/2015,5.214,40.4,36.48,1.288,2.543,1.519,0.585,6.22,5.76,0.118,0.054,0.054
08/12/2015,6.212,44.13,39.44,1.511,2.623,1.598,0.998,3.73,2.96,0.223,0.08,0.079
09/12/2015,7.109,48.53,43.18,1.757,2.775,1.751,0.897,4.4,3.74,0.246,0.152,0.153
10/12/2015,8.177,52.29,46.22,2.109,3.037,2.011,1.068,3.76,3.04,0.352,0.262,0.26
11/12/2015,9.622,59.98,52.69,2.332,3.278,2.252,1.445,7.69,6.47,0.223,0.241,0.241
12/12/2015,10.48,65.83,57.86,2.501,3.351,2.324,0.858,5.85,5.17,0.169,0.073,0.072
13/12/2015,11.11,72.88,64.43,2.666,3.432,2.405,0.63,7.05,6.57,0.165,0.081,0.081
14/12/2015,11.82,77.78,68.81,2.85,3.54,2.513,0.71,4.9,4.38,0.184,0.108,0.108
15/12/2015,12.74,83.11,73.47,3.103,3.693,2.665,0.92,5.33,4.66,0.253,0.153,0.152
16/12/2015,13.19,89.83,79.77,3.133,3.703,2.674,0.45,6.72,6.3,0.03,0.01,0.009
17/12/2015,13.97,93.38,82.81,3.409,3.958,2.929,0.78,3.55,3.04,0.276,0.255,0.255
18/12/2015,14.97,98.42,87.04,3.596,4.114,3.075,1,5.04,4.23,0.187,0.156,0.146
19/12/2015,16.17,102.91,90.61,3.876,4.296,3.256,1.2,4.49,3.57,0.28,0.182,0.181
20/12/2015,17.59,109.2,95.95,4.336,4.628,3.588,1.42,6.29,5.34,0.46,0.332,0.332
21/12/2015,18.83,117.12,102.95,4.664,4.92,3.879,1.24,7.92,7,0.328,0.292,0.291
22/12/2015,19.33,124.98,110.36,4.714,4.925,3.885,0.5,7.86,7.41,0.05,0.005,0.006
23/12/2015,20.01,130.72,115.48,4.781,4.946,3.904,0.68,5.74,5.12,0.067,0.021,0.019
24/12/2015,21.1,136.84,120.89,5.158,5.159,4.117,1.09,6.12,5.41,0.377,0.213,0.213
25/12/2015,22.02,139.41,122.85,5.47,5.543,4.501,0.92,2.57,1.96,0.312,0.384,0.384
26/12/2015,22.31,141.22,124.54,5.638,5.581,4.538,0.29,1.81,1.69,0.168,0.038,0.037
27/12/2015,22.84,142.92,126.01,5.927,5.66,4.618,0.53,1.7,1.47,0.289,0.079,0.08
28/12/2015,23,147.72,130.66,5.936,5.661,4.618,0.16,4.8,4.65,0.009,0.001,0
29/12/2015,24.33,152.84,134.77,6.283,5.842,4.795,1.33,5.12,4.11,0.347,0.181,0.177
30/12/2015,25.32,158.22,139.41,6.516,5.946,4.898,0.99,5.38,4.64,0.233,0.104,0.103
31/12/2015,25.74,164.56,145.41,6.621,5.979,4.931,0.42,6.34,6,0.105,0.033,0.033
01/01/2016,26.8,170.98,150.99,6.862,6.113,5.065,1.06,6.42,5.58,0.241,0.134,0.134
02/01/2016,27.45,181.4,160.87,6.983,6.198,5.078,0.65,10.42,9.88,0.121,0.085,0.013
03/01/2016,27.9,199.97,178.99,6.984,6.198,5.078,0.45,18.57,18.12,0.001,0,0
04/01/2016,28.16,207.95,186.74,7.013,6.202,5.083,0.26,7.98,7.75,0.029,0.004,0.005
05/01/2016,29.59,212.71,190.44,7.377,6.607,5.485,1.43,4.76,3.7,0.364,0.405,0.402
06/01/2016,30.89,218.74,195.34,7.552,6.741,5.612,1.3,6.03,4.9,0.175,0.134,0.127
07/01/2016,31.65,222.16,198.26,7.814,6.951,5.822,0.76,3.42,2.92,0.262,0.21,0.21
08/01/2016,32.72,228.97,204.17,7.991,7.093,5.963,1.07,6.81,5.91,0.177,0.142,0.141
09/01/2016,33.85,235.76,210.02,8.167,7.197,6.064,1.13,6.79,5.85,0.176,0.104,0.101
10/01/2016,34.73,239.57,213.26,8.486,7.487,6.353,0.88,3.81,3.24,0.319,0.29,0.289
11/01/2016,35.75,244.16,217.12,8.764,7.626,6.493,1.02,4.59,3.86,0.278,0.139,0.14
12/01/2016,37,250.58,222.6,9.067,7.95,6.816,1.25,6.42,5.48,0.303,0.324,0.323
13/01/2016,37.88,255.14,226.42,9.196,8.005,6.871,0.88,4.56,3.82,0.129,0.055,0.055
14/01/2016,39.89,259.26,229.12,9.776,9.145,8.01,2.01,4.12,2.7,0.58,1.14,1.139
15/01/2016,41.4,265.13,233.71,10,9.322,8.183,1.51,5.87,4.59,0.224,0.177,0.173
16/01/2016,42.65,275.13,242.59,10.14,9.438,8.298,1.25,10,8.88,0.14,0.116,0.115
17/01/2016,44.43,280.06,246.07,10.47,9.83,8.69,1.78,4.93,3.48,0.33,0.392,0.392
18/01/2016,45.26,287.1,252.36,10.56,9.87,8.73,0.83,7.04,6.29,0.09,0.04,0.04
19/01/2016,46.88,292,256.02,10.94,10.12,8.969,1.62,4.9,3.66,0.38,0.25,0.239
20/01/2016,48.2,297.17,260.16,11.23,10.49,9.325,1.32,5.17,4.14,0.29,0.37,0.356
21/01/2016,49.5,303.28,265.17,11.31,10.6,9.429,1.3,6.11,5.01,0.08,0.11,0.104
22/01/2016,51.13,308.58,269.33,11.69,10.99,9.817,1.63,5.3,4.16,0.38,0.39,0.388
23/01/2016,51.9,313.13,273.34,11.79,11.03,9.852,0.77,4.55,4.01,0.1,0.04,0.035
24/01/2016,53.73,318.23,277.22,12.34,11.64,10.46,1.83,5.1,3.88,0.55,0.61,0.608
25/01/2016,55.34,324.51,282.34,12.73,12.21,11.04,1.61,6.28,5.12,0.39,0.57,0.58
26/01/2016,57.08,330.75,287.23,13.06,12.78,11.6,1.74,6.24,4.89,0.33,0.57,0.56
27/01/2016,57.9,336.03,291.82,13.15,12.79,11.6,0.82,5.28,4.59,0.09,0.01,0
28/01/2016,58.53,341.28,296.57,13.19,12.8,11.61,0.63,5.25,4.75,0.04,0.01,0.01
29/01/2016,60.58,347.6,301.15,13.47,13.17,11.95,2.05,6.32,4.58,0.28,0.37,0.34
30/01/2016,61.54,351.54,304.3,13.65,13.22,12,0.96,3.94,3.15,0.18,0.05,0.05
31/01/2016,63.28,357.21,308.64,14.06,13.9,12.67,1.74,5.67,4.34,0.41,0.68,0.67
01/02/2016,64.39,364.57,315.08,14.24,14.05,12.82,1.11,7.36,6.44,0.18,0.15,0.15
02/02/2016,64.58,369.82,320.2,14.3,14.09,12.86,0.19,5.25,5.12,0.06,0.04,0.04
03/02/2016,65.2,378.6,328.38,14.33,14.17,12.89,0.62,8.78,8.18,0.03,0.08,0.03
04/02/2016,67.3,388.08,335.88,14.43,14.34,13.06,2.1,9.48,7.5,0.1,0.17,0.17
05/02/2016,68.84,397.83,344.18,14.5,14.41,13.11,1.54,9.75,8.3,0.07,0.07,0.05
06/02/2016,70.29,409.69,354.62,14.53,14.42,13.12,1.45,11.86,10.44,0.03,0.01,0.01
07/02/2016,71.07,419.14,363.27,14.53,14.43,13.12,0.78,9.45,8.65,0,0.01,0
08/02/2016,74.3,430.56,371.68,14.78,15.11,13.78,3.23,11.42,8.41,0.25,0.68,0.66
09/02/2016,76.52,440.3,379.44,14.98,15.66,14.32,2.22,9.74,7.76,0.2,0.55,0.54
10/02/2016,78.4,451.09,388.45,15.07,15.74,14.39,1.88,10.79,9.01,0.09,0.08,0.07
11/02/2016,80.18,461.24,396.92,15.18,15.89,14.52,1.78,10.15,8.47,0.11,0.15,0.13
12/02/2016,83.21,471.14,404.08,15.43,16.8,15.41,3.03,9.9,7.16,0.25,0.91,0.89
13/02/2016,86.47,483.03,412.99,15.71,17.97,16.57,3.26,11.89,8.91,0.28,1.17,1.16
14/02/2016,87.46,492.87,421.84,15.73,17.97,16.57,0.99,9.84,8.85,0.02,0,0
15/02/2016,91.18,504.47,430.04,16.08,18.69,17.29,3.72,11.6,8.2,0.35,0.72,0.72
16/02/2016,94.94,513.75,436.02,16.51,20.27,18.84,3.76,9.28,5.98,0.43,1.58,1.55
17/02/2016,98.95,525.79,444.28,16.74,21.56,20.11,4.01,12.04,8.26,0.23,1.29,1.27
18/02/2016,100.48,537.79,454.83,16.81,21.62,20.17,1.53,12,10.55,0.07,0.06,0.06
19/02/2016,103.95,547.78,461.65,17.12,22.58,21.1,3.47,9.99,6.82,0.31,0.96,0.93
20/02/2016,108.39,559.18,469.02,17.5,24.08,22.55,4.44,11.4,7.37,0.38,1.5,1.45
21/02/2016,110.6,569.33,477.13,17.66,24.45,22.9,2.21,10.15,8.11,0.16,0.37,0.35
22/02/2016,113.39,581.57,486.82,17.89,24.95,23.4,2.79,12.24,9.69,0.23,0.5,0.5
23/02/2016,116.11,591.72,494.47,18.11,25.39,23.82,2.72,10.15,7.65,0.22,0.44,0.42
24/02/2016,119.6,602.81,502.36,18.33,26.28,24.71,3.49,11.09,7.89,0.22,0.89,0.89
25/02/2016,124.95,614.93,509.63,18.73,28.9,27.31,5.35,12.12,7.27,0.4,2.62,2.6
26/02/2016,130.16,626.71,516.6,19.1,31.08,29.47,5.21,11.78,6.97,0.37,2.18,2.16
27/02/2016,135.5,640.31,525.42,19.56,33.5,31.88,5.34,13.6,8.82,0.46,2.42,2.41
28/02/2016,138.66,649.27,531.42,19.95,34.19,32.55,3.16,8.96,6,0.39,0.69,0.67
29/02/2016,143.04,658.55,536.89,20.5,36.49,34.84,4.38,9.28,5.47,0.55,2.3,2.29
01/03/2016,149.66,671.38,543.67,21.06,39.29,37.61,6.62,12.83,6.78,0.56,2.8,2.77
02/03/2016,151.53,681.68,552.18,21.17,39.44,37.76,1.87,10.3,8.51,0.11,0.15,0.15
03/03/2016,154.69,691.31,558.82,21.44,40.61,38.9,3.16,9.63,6.64,0.27,1.17,1.14
04/03/2016,160.56,704.89,567.16,21.87,42.46,40.71,5.87,13.58,8.34,0.43,1.85,1.81
05/03/2016,168.61,719.67,575.18,22.97,46.8,45.03,8.05,14.78,8.02,1.1,4.34,4.32
06/03/2016,171.14,728.99,582.14,23.18,47.22,45.44,2.53,9.32,6.96,0.21,0.42,0.41
07/03/2016,175.79,742.07,591.13,23.55,49.04,47.24,4.65,13.08,8.99,0.37,1.82,1.8
08/03/2016,183.97,758.06,599.53,24.08,53.24,51.33,8.18,15.99,8.4,0.53,4.2,4.09
09/03/2016,188.39,771.07,608.39,24.42,54.44,52.5,4.42,13.01,8.86,0.34,1.2,1.17
10/03/2016,191.64,780.81,615.18,24.71,55.48,53.54,3.25,9.74,6.79,0.29,1.04,1.04
11/03/2016,194,790.39,622.57,24.85,55.59,53.65,2.36,9.58,7.39,0.14,0.11,0.11
12/03/2016,201.73,803.25,628.57,25.66,59.99,58.03,7.73,12.86,6,0.81,4.4,4.38
13/03/2016,207.79,816.67,636.31,26.09,62.47,60.5,6.06,13.42,7.74,0.43,2.48,2.47
14/03/2016,215.34,830.87,643.85,26.98,66.91,64.92,7.55,14.2,7.54,0.89,4.44,4.42
15/03/2016,224.6,846.03,650.97,28.16,71.41,69.36,9.26,15.16,7.12,1.18,4.5,4.44
16/03/2016,227.86,859.19,661.1,28.43,71.91,69.83,3.26,13.16,10.13,0.27,0.5,0.47
17/03/2016,232.8,870.94,668.29,28.85,73.74,71.63,4.94,11.75,7.19,0.42,1.83,1.8
18/03/2016,242.77,888.6,677.41,30.32,78.15,76.01,9.97,17.66,9.12,1.47,4.41,4.38
19/03/2016,244.39,899.85,686.97,30.32,78.15,76.01,1.62,11.25,9.56,0,0,0
20/03/2016,247.25,908.98,693.53,30.51,78.4,76.24,2.86,9.13,6.56,0.19,0.25,0.23
21/03/2016,250.92,919.77,700.85,30.7,78.95,76.77,3.67,10.79,7.32,0.19,0.55,0.53
22/03/2016,257.47,932.53,707.76,31.37,82.16,79.95,6.55,12.76,6.91,0.67,3.21,3.18
23/03/2016,267.76,947.85,714.14,32.66,86.91,84.68,10.29,15.32,6.38,1.29,4.75,4.73
24/03/2016,271.47,957.21,720.31,33.17,87.86,85.61,3.71,9.36,6.17,0.51,0.95,0.93
25/03/2016,275.45,968.19,727.66,33.5,88.66,86.41,3.98,10.98,7.35,0.33,0.8,0.8
26/03/2016,287.09,984.97,734.89,35.53,93.44,91.14,11.64,16.78,7.23,2.03,4.78,4.73
27/03/2016,288.98,994.35,742.5,35.55,93.46,91.14,1.89,9.38,7.61,0.02,0.02,0
28/03/2016,296.71,1008,749.24,36.23,98.16,95.72,7.73,13.65,6.74,0.68,4.7,4.58
29/03/2016,304.74,1024,757.42,36.89,101.92,99.29,8.03,16,8.18,0.66,3.76,3.57
30/03/2016,312.29,1038,765.16,37.56,106.11,103.36,7.55,14,7.74,0.67,4.19,4.07
31/03/2016,322.52,1051,770.15,40.29,110.82,108.01,10.23,13,4.99,2.73,4.71,4.65
01/04/2016,332.85,1069,778.97,41.75,115.72,112.74,10.33,18,8.82,1.46,4.9,4.73
02/04/2016,342.97,1081,783.64,44.14,120.59,117.58,10.12,12,4.67,2.39,4.87,4.84
03/04/2016,354.84,1092,787.95,48.92,125.13,122.11,11.87,11,4.31,4.78,4.54,4.53
04/04/2016,363.01,1102,791.87,51.05,129,125.97,8.17,10,3.92,2.13,3.87,3.86
05/04/2016,369.8,1112,795.85,51.76,132.94,129.86,6.79,10,3.98,0.71,3.94,3.89
06/04/2016,381.06,1123,799.51,55.76,138,134.89,11.26,11,3.66,4,5.06,5.03
07/04/2016,389.61,1136,805.37,57.12,142.96,139.77,8.55,13,5.86,1.36,4.96,4.88
08/04/2016,395.08,1150,814.06,57.75,144.49,141.25,5.47,14,8.69,0.63,1.53,1.48
09/04/2016,403.7,1169,824.92,58.48,148.12,144.83,8.62,19,10.86,0.73,3.63,3.58
10/04/2016,412.95,1183,831.95,59.93,152.93,149.57,9.25,14,7.03,1.45,4.81,4.74
11/04/2016,424.79,1201,839.36,61.69,157.75,154.34,11.84,18,7.41,1.76,4.82,4.77
12/04/2016,430.21,1212,845.24,62.25,159.11,155.68,5.42,11,5.88,0.56,1.36,1.34
13/04/2016,443.99,1229,852.44,66.08,164.14,160.63,13.78,17,7.2,3.83,5.03,4.95
14/04/2016,456.56,1244,858.29,69.63,169.14,165.6,12.57,15,5.85,3.55,5,4.97
15/04/2016,468.02,1259,864.56,72.34,174.15,170.56,11.46,15,6.27,2.71,5.01,4.96
16/04/2016,472.55,1269,870.98,72.73,175.6,172,4.53,10,6.42,0.39,1.45,1.44
17/04/2016,479.74,1283,878.24,73.33,178.5,174.88,7.19,14,7.26,0.6,2.9,2.88
18/04/2016,493.01,1300,885.1,76.65,183.44,179.77,13.27,17,6.86,3.32,4.94,4.89
19/04/2016,500.43,1314,892.48,77.49,185.7,181.99,7.42,14,7.38,0.84,2.26,2.22
20/04/2016,513.76,1329,898.3,81.58,191.07,187.33,13.33,15,5.82,4.09,5.37,5.34
21/04/2016,531.22,1342,902.42,89.83,197.3,193.55,17.46,13,4.12,8.25,6.23,6.22
22/04/2016,542.19,1356,907.71,91.92,201.86,198.02,10.97,14,5.29,2.09,4.56,4.47
23/04/2016,546.32,1367,915.41,92.42,202.66,198.82,4.13,11,7.7,0.5,0.8,0.8
24/04/2016,557.82,1383,921.48,94.8,207.64,203.71,11.5,16,6.07,2.38,4.98,4.89
25/04/2016,567.02,1396,927.52,97.21,211.75,207.77,9.2,13,6.04,2.41,4.11,4.06
26/04/2016,573.55,1409,934.39,97.84,214.09,210.08,6.53,13,6.87,0.63,2.34,2.31
27/04/2016,587.03,1423,939.65,102.06,219.35,215.25,13.48,14,5.26,4.22,5.26,5.17
28/04/2016,601.51,1437,943.84,107.29,224.98,220.85,14.48,14,4.19,5.23,5.63,5.6
29/04/2016,614.73,1452,949.3,110.73,229.53,225.21,13.22,15,5.46,3.44,4.55,4.36
30/04/2016,628.59,1468,955.48,114.74,234.66,230.24,13.86,16,6.18,4.01,5.13,5.03
01/05/2016,642.05,1484,961.5,117.96,239.79,235.33,13.46,16,6.02,3.22,5.13,5.09
02/05/2016,657.88,1498,967.02,125.76,245.44,240.97,15.83,14,5.52,7.8,5.65,5.64
03/05/2016,667.14,1510,972.06,127.38,249.87,245.37,9.26,12,5.04,1.62,4.43,4.4
04/05/2016,679.74,1524,977.23,130.79,254.32,249.79,12.6,14,5.17,3.41,4.45,4.42
05/05/2016,697.9,1537,981.44,139.8,260.1,255.57,18.16,13,4.21,9.01,5.78,5.78
06/05/2016,714.83,1551,985.92,147.68,264.96,260.41,16.93,14,4.48,7.88,4.86,4.84
07/05/2016,728.8,1565,990.68,151.89,269.72,265.15,13.97,14,4.76,4.21,4.76,4.74
08/05/2016,740.61,1580,996.24,154.51,274.42,269.75,11.81,15,5.56,2.62,4.7,4.6
09/05/2016,757.1,1595,1001,160.37,279.35,274.63,16.49,15,4.76,5.86,4.93,4.88
10/05/2016,764.46,1609,1008,161.22,282.7,277.94,7.36,14,7,0.85,3.35,3.31
11/05/2016,768.68,1620,1015,161.53,283.38,278.61,4.22,11,7,0.31,0.68,0.67
12/05/2016,774.62,1630,1020,162.24,285.43,280.66,5.94,10,5,0.71,2.05,2.05
13/05/2016,789.29,1645,1025,167.39,290.31,285.51,14.67,15,5,5.15,4.88,4.85
14/05/2016,805.33,1660,1031,173.4,295.3,290.47,16.04,15,6,6.01,4.99,4.96
15/05/2016,822.1,1675,1036,180.04,300.9,296.03,16.77,15,5,6.64,5.6,5.56
16/05/2016,838.12,1690,1041,185.83,305.87,300.97,16.02,15,5,5.79,4.97,4.94
17/05/2016,855.12,1704,1045,193.58,311.07,306.16,17,14,4,7.75,5.2,5.19
18/05/2016,865.3,1717,1050,195.49,315.57,310.62,10.18,13,5,1.91,4.5,4.46
19/05/2016,870.89,1728,1056,195.95,317.37,312.4,5.59,11,6,0.46,1.8,1.78
20/05/2016,881.17,1742,1062,198.02,322.05,317.06,10.28,14,6,2.07,4.68,4.66
21/05/2016,892.59,1756,1067,200.41,326.6,321.57,11.42,14,5,2.39,4.55,4.51
22/05/2016,898.01,1766,1074,200.88,328.02,322.97,5.42,10,7,0.47,1.42,1.4
23/05/2016,909.24,1781,1080,204.47,332.58,327.51,11.23,15,6,3.59,4.56,4.54
24/05/2016,926.6,1795,1085,212.6,337.5,332.4,17.36,14,5,8.13,4.92,4.89
25/05/2016,942.44,1809,1089,219.48,342.51,337.4,15.84,14,4,6.88,5.01,5
26/05/2016,947.93,1819,1095,220.12,344.21,339.08,5.49,10,6,0.64,1.7,1.68
27/05/2016,963.12,1835,1100,224.54,349.02,343.8,15.19,16,5,4.42,4.81,4.72
28/05/2016,977.94,1849,1105,230.18,353.77,348.54,14.82,14,5,5.64,4.75,4.74
29/05/2016,992.88,1864,1110,234.79,358.6,353.35,14.94,15,5,4.61,4.83,4.81
30/05/2016,1007,1879,1116,239.18,363.53,358.23,14.12,15,6,4.39,4.93,4.88
31/05/2016,1011,1890,1123,239.54,364.12,358.82,4,11,7,0.36,0.59,0.59
01/06/2016,1013,1899,1131,239.54,364.13,358.83,2,9,8,0,0.01,0.01
02/06/2016,1015,1911,1140,239.54,364.14,358.83,2,12,9,0,0.01,0
03/06/2016,1022,1924,1148,240.09,365.93,360.58,7,13,8,0.55,1.79,1.75
04/06/2016,1028,1933,1151,240.94,369.13,363.76,6,9,3,0.85,3.2,3.18
05/06/2016,1033,1941,1155,241.68,371.34,365.94,5,8,4,0.74,2.21,2.18
06/06/2016,1050,1950,1157,251.69,376.18,370.76,17,9,2,10.01,4.84,4.82
07/06/2016,1068,1960,1160,261.83,381.02,375.6,18,10,3,10.14,4.84,4.84
08/06/2016,1079,1970,1163,266.3,385.89,380.46,11,10,3,4.47,4.87,4.86
09/06/2016,1090,1980,1165,269.89,390.16,384.7,11,10,2,3.59,4.27,4.24
10/06/2016,1106,1991,1168,278.22,394.55,389.05,16,11,3,8.33,4.39,4.35
11/06/2016,1118,2001,1171,282.71,398.24,392.71,12,10,3,4.49,3.69,3.66
12/06/2016,1127,2010,1173,284.6,402.56,397.01,9,9,2,1.89,4.32,4.3
13/06/2016,1135,2020,1176,286.28,407.08,401.46,8,10,3,1.68,4.52,4.45
14/06/2016,1142,2028,1179,287.29,410.58,404.94,7,8,3,1.01,3.5,3.48
15/06/2016,1151,2038,1182,289.24,415.08,409.4,9,10,3,1.95,4.5,4.46
16/06/2016,1164,2048,1185,295.35,419.85,414.12,13,10,3,6.11,4.77,4.72
17/06/2016,1171,2059,1189,296.25,423.59,417.84,7,11,4,0.9,3.74,3.72
18/06/2016,1183,2075,1195,298.33,428.29,422.46,12,16,6,2.08,4.7,4.62
19/06/2016,1189,2088,1203,299.01,430.2,424.35,6,13,8,0.68,1.91,1.89
20/06/2016,1199,2104,1211,300.92,433.1,427.19,10,16,8,1.91,2.9,2.84
21/06/2016,1206,2116,1217,301.64,435.87,429.87,7,12,6,0.72,2.77,2.68
22/06/2016,1216,2130,1222,303.25,440.43,434.38,10,14,5,1.61,4.56,4.51
23/06/2016,1223,2141,1227,303.99,442.59,436.49,7,11,5,0.74,2.16,2.11
24/06/2016,1226,2152,1235,304.11,442.89,436.78,3,11,8,0.12,0.3,0.29
25/06/2016,1239,2166,1239,307.45,447.79,441.59,13,14,4,3.34,4.9,4.81
26/06/2016,1250,2179,1244,310.1,452.47,446.24,11,13,5,2.65,4.68,4.65
27/06/2016,1260,2194,1250,311.85,456.82,450.55,10,15,6,1.75,4.35,4.31
28/06/2016,1273,2206,1254,316.69,461.76,455.47,13,12,4,4.84,4.94,4.92
29/06/2016,1285,2219,1259,319.52,465.68,459.36,12,13,5,2.83,3.92,3.89
30/06/2016,1289,2228,1264,320.19,466.43,460.1,4,9,5,0.67,0.75,0.74
01/07/2016,1300,2243,1270,321.71,470.91,464.53,11,15,6,1.52,4.48,4.43
02/07/2016,1308,2257,1276,322.52,473.9,467.38,8,14,6,0.81,2.99,2.85
03/07/2016,1321,2272,1282,325.67,478.71,472.09,13,15,6,3.15,4.81,4.71
04/07/2016,1334,2288,1287,329.4,483.45,476.76,13,16,5,3.73,4.74,4.67
05/07/2016,1344,2302,1293,331.83,487.53,480.81,10,14,6,2.43,4.08,4.05
06/07/2016,1359,2314,1297,338.17,492.48,485.74,15,12,4,6.34,4.95,4.93
07/07/2016,1374,2327,1302,344.53,497.2,490.45,15,13,5,6.36,4.72,4.71
08/07/2016,1387,2342,1306,348.48,501.77,494.96,13,15,4,3.95,4.57,4.51
09/07/2016,1397,2355,1311,349.46,505.38,498.52,10,13,5,0.98,3.61,3.56
10/07/2016,1407,2369,1317,350.7,509.05,502.17,10,14,6,1.24,3.67,3.65
11/07/2016,1417,2381,1321,353.35,513.88,506.88,10,12,4,2.65,4.83,4.71
12/07/2016,1426,2396,1327,354.04,517.44,510.34,9,15,6,0.69,3.56,3.46
13/07/2016,1436,2412,1332,355.09,521.91,514.76,10,16,5,1.05,4.47,4.42
14/07/2016,1447,2427,1336,356.55,526.31,519.11,11,15,4,1.46,4.4,4.35
15/07/2016,1460,2443,1340,360.1,531.07,523.81,13,16,4,3.55,4.76,4.7
16/07/2016,1467,2456,1345,361.31,533.33,526.05,7,13,5,1.21,2.26,2.24
17/07/2016,1480,2472,1349,364.05,537.92,530.58,13,16,4,2.74,4.59,4.53
18/07/2016,1492,2488,1353,367.64,542.69,535.29,12,16,4,3.59,4.77,4.71
19/07/2016,1510,2504,1357,375.59,547.47,539.99,18,16,4,7.95,4.78,4.7
20/07/2016,1527,2522,1363,382.21,552.24,544.74,17,18,6,6.62,4.77,4.75
21/07/2016,1542,2536,1367,387.77,556.96,549.43,15,14,4,5.56,4.72,4.69
22/07/2016,1553,2551,1371,390.37,561.34,553.75,11,15,4,2.6,4.38,4.32
23/07/2016,1561,2566,1377,390.98,563.88,556.26,8,15,6,0.61,2.54,2.51
24/07/2016,1576,2582,1382,396.13,568.63,560.98,15,16,5,5.15,4.75,4.72
25/07/2016,1585,2597,1387,397.43,572.99,565.25,9,15,5,1.3,4.36,4.27
26/07/2016,1598,2613,1393,401.33,577.79,570.01,13,16,6,3.9,4.8,4.76
27/07/2016,1610,2628,1397,404.05,582.37,574.58,12,15,4,2.72,4.58,4.57
28/07/2016,1619,2642,1402,405.45,587.2,579.33,9,14,5,1.4,4.83,4.75
29/07/2016,1628,2656,1407,406.66,590.6,582.7,9,14,5,1.21,3.4,3.37
30/07/2016,1634,2671,1414,407.22,592.63,584.72,6,15,7,0.56,2.03,2.02
31/07/2016,1642,2686,1420,407.98,596.28,588.33,8,15,6,0.76,3.65,3.61
01/08/2016,1654,2703,1425,410.72,600.85,592.89,12,17,5,2.74,4.57,4.56
02/08/2016,1659,2716,1431,411.51,602.29,594.3,5,13,6,0.79,1.44,1.41
03/08/2016,1664,2732,1440,411.9,603,595.01,5,16,9,0.39,0.71,0.71
04/08/2016,1674,2749,1446,413.47,607.76,599.68,10,17,6,1.57,4.76,4.67
05/08/2016,1685,2767,1452,414.75,612.43,604.29,11,18,6,1.28,4.67,4.61
06/08/2016,1698,2785,1457,419.24,617.14,608.95,13,18,5,4.49,4.71,4.66
07/08/2016,1715,2801,1463,426.56,621.95,613.76,17,16,6,7.32,4.81,4.81
08/08/2016,1728,2819,1468,430.02,626.82,618.44,13,18,5,3.46,4.87,4.68
09/08/2016,1739,2834,1473,432.55,631.42,622.99,11,15,5,2.53,4.6,4.55
10/08/2016,1752,2850,1478,436.7,635.93,627.45,13,16,5,4.15,4.51,4.46
11/08/2016,1761,2864,1482,437.87,640.48,631.97,9,14,4,1.17,4.55,4.52
12/08/2016,1772,2881,1488,440.52,645.03,636.47,11,17,6,2.65,4.55,4.5
13/08/2016,1788,2897,1493,447.4,649.95,641.36,16,16,5,6.88,4.92,4.89
14/08/2016,1797,2910,1496,449.82,654.92,646.24,9,13,3,2.42,4.97,4.88
15/08/2016,1807,2923,1500,451.53,659.6,650.9,10,13,4,1.71,4.68,4.66
16/08/2016,1823,2941,1506,457.23,664.12,655.37,16,18,6,5.7,4.52,4.47
17/08/2016,1837,2956,1510,461.48,668.87,660.07,14,15,4,4.25,4.75,4.7
18/08/2016,1851,2973,1516,465.59,673.67,664.83,14,17,6,4.11,4.8,4.76
19/08/2016,1859,2990,1522,466.37,678.08,669.22,8,17,6,0.78,4.41,4.39
20/08/2016,1863,3001,1527,466.66,678.73,669.87,4,11,5,0.29,0.65,0.65
21/08/2016,1872,3015,1533,467.64,683.24,674.24,9,14,6,0.98,4.51,4.37
22/08/2016,1880,3031,1539,468.3,687.34,678.24,8,16,6,0.66,4.1,4
23/08/2016,1889,3046,1545,469.18,691.94,682.8,9,15,6,0.88,4.6,4.56
24/08/2016,1904,3063,1550,474.64,696.54,687.34,15,17,5,5.46,4.6,4.54
25/08/2016,1917,3080,1556,478.87,701.11,691.88,13,17,6,4.23,4.57,4.54
26/08/2016,1924,3095,1561,479.57,704.09,694.84,7,15,5,0.7,2.98,2.96
27/08/2016,1939,3112,1565,485.08,708.97,699.69,15,17,4,5.51,4.88,4.85
28/08/2016,1945,3126,1572,485.55,710.59,701.3,6,14,7,0.47,1.62,1.61
29/08/2016,1952,3140,1578,486.13,713.1,703.79,7,14,6,0.58,2.51,2.49
30/08/2016,1962,3155,1583,488.73,717.99,708.66,10,15,5,2.6,4.89,4.87
31/08/2016,1977,3172,1588,493.28,722.83,713.46,15,17,5,4.55,4.84,4.8
01/09/2016,1986,3188,1593,494.64,727.3,717.85,9,16,5,1.36,4.47,4.39
02/09/2016,1998,3203,1598,498.49,732.07,722.58,12,15,5,3.85,4.77,4.73
03/09/2016,2001,3217,1607,498.7,732.27,722.78,3,14,9,0.21,0.2,0.2
04/09/2016,2006,3230,1613,499.31,734.19,724.68,5,13,6,0.61,1.92,1.9
05/09/2016,2011,3243,1620,499.68,734.78,725.26,5,13,7,0.37,0.59,0.58
06/09/2016,2016,3255,1626,500.19,736.19,726.66,5,12,6,0.51,1.41,1.4
07/09/2016,2019,3267,1633,500.46,736.5,726.97,3,12,7,0.27,0.31,0.31
08/09/2016,2026,3283,1639,501.02,740.43,730.85,7,16,6,0.56,3.93,3.88
09/09/2016,2037,3300,1645,503.84,745.2,735.53,11,17,6,2.82,4.77,4.68
10/09/2016,2045,3314,1651,504.7,748.6,738.84,8,14,6,0.86,3.4,3.31
11/09/2016,2046,3327,1660,504.73,748.61,738.85,1,13,9,0.03,0.01,0.01
12/09/2016,2057,3341,1665,508.36,753.42,743.66,11,14,5,3.63,4.81,4.81
13/09/2016,2064,3357,1672,508.89,756.13,746.34,7,16,7,0.53,2.71,2.68
14/09/2016,2074,3375,1678,510.82,760.76,750.94,10,18,6,1.93,4.63,4.6
15/09/2016,2085,3389,1684,513.68,764.9,755.02,11,14,6,2.86,4.14,4.08
16/09/2016,2094,3403,1689,515.45,769.28,759.4,9,14,5,1.77,4.38,4.38
17/09/2016,2096,3415,1698,515.54,769.44,759.55,2,12,9,0.09,0.16,0.15
18/09/2016,2098,3428,1705,515.6,769.55,759.65,2,13,7,0.06,0.11,0.1
19/09/2016,2104,3442,1712,516.08,772.04,762.11,6,14,7,0.48,2.49,2.46
20/09/2016,2107,3456,1722,516.41,772.88,762.94,3,14,10,0.33,0.84,0.83
21/09/2016,2110,3467,1728,516.68,773.3,763.36,3,11,6,0.27,0.42,0.42
22/09/2016,2116,3479,1733,517.29,776.26,766.29,6,12,5,0.61,2.96,2.93
23/09/2016,2122,3494,1740,517.77,777.83,767.82,6,15,7,0.48,1.57,1.53
24/09/2016,2131,3509,1746,519.57,781.95,771.91,9,15,6,1.8,4.12,4.09
25/09/2016,2138,3525,1752,520.54,785.86,775.81,7,16,6,0.97,3.91,3.9
26/09/2016,2145,3541,1759,521.08,789.5,779.35,7,16,7,0.54,3.64,3.54
27/09/2016,2150,3552,1765,521.58,790.63,780.47,5,11,6,0.5,1.13,1.12
28/09/2016,2153,3563,1771,521.84,791.02,780.83,3,11,6,0.26,0.39,0.36
29/09/2016,2160,3578,1777,522.35,793.6,783.39,7,15,6,0.51,2.58,2.56
30/09/2016,2165,3592,1785,522.79,795.6,785.37,5,14,8,0.44,2,1.98
01/10/2016,2172,3610,1792,523.18,798.94,788.64,7,18,7,0.39,3.34,3.27
02/10/2016,2177,3623,1799,523.52,801.46,791.11,5,13,7,0.34,2.52,2.47
03/10/2016,2184,3639,1805,524.71,805.57,795.19,7,16,6,1.19,4.11,4.08
04/10/2016,2192,3656,1813,525.38,809.58,799.17,8,17,8,0.67,4.01,3.98
05/10/2016,2199,3672,1819,525.96,813.52,803.03,7,16,6,0.58,3.94,3.86
06/10/2016,2207,3686,1824,528.2,817.62,807.13,8,14,5,2.24,4.1,4.1
07/10/2016,2212,3699,1831,528.56,819.58,809.05,5,13,7,0.36,1.96,1.92
08/10/2016,2214,3714,1840,528.73,819.87,809.34,2,15,9,0.17,0.29,0.29
09/10/2016,2217,3726,1847,528.91,820.44,809.9,3,12,7,0.18,0.57,0.56
10/10/2016,2222,3740,1854,529.35,823.42,812.82,5,14,7,0.44,2.98,2.92
11/10/2016,2229,3755,1861,529.89,827.25,816.62,7,15,7,0.54,3.83,3.8
12/10/2016,2235,3771,1869,530.35,830.83,820.15,6,16,8,0.46,3.58,3.53